Retour au catalogue

COSMOS 2251 DEB

ActifLEO
NORAD 34122·DEBRIS·🇷🇺 Russia

Lancé Jun 16, 1993 depuis Plesetsk Cosmodrome

Loading…

Prochains Passages (prochaines 24 heures)

TLE

FraisSource: Space-Track

Époque: Sep 14, 2026, 10:19 UTC

1 34122U 93036KT  26257.43027719  .00002963  00000-0  49754-3 0  9990
2 34122  74.0347 306.7034 0077090 133.7774 240.5859 14.68183278927275

Suivez COSMOS 2251 DEB en temps réel avec AllMySat

Download on the App Store